STARLINK-31815, 59801

Orbit data source: Space-Track

STARLINK-31815, 59801 is a payload satellite owned by SpaceX/Seattle (US) in LEO that was launched on Sat, 18 May 2024 UTC via an FALCON 9 launch vehicle from the Air Force Eastern Test Range (AFETR). Payload-class satellites include a variety of spacecraft equipped with specific instruments for various scientific and technological missions. These include communications satellites like Starlink; space stations such as the ISS; scientific satellites like the Hubble; Earth observation satellites from companies like Planet Labs, Umbra, and HawkEye 360; GPS; miniature CubeSats for education and research; and military/defense satellites.

Loading next visibility...
Identifier
59801, 2024-093V
Orbit
LEO
Country
Flag of USUS
Related business
Manufacturer
SpaceX/Seattle
Mission
Operational Commercial Communications
Bus & Motor
STARLINK V2M, Unknown motor
Mass
730 kg wet, ~700 kg dry
Launch date (UTC)
2024-05-18 (2 years ago)
Launch vehicle
FALCON 9
Launch site
Air Force Eastern Test Range (AFETR)
Object type
Payload
Rocket body
Debris
Shape & HBR
Box + 2 Pan, 17.7 m
Radar Cross Section
33.884 m², Large (>1 m²)

Expand to show TLE details & history
Last TLE update: 2 days ago

TLE from 2 days ago
0 STARLINK-31815
1 59801U 24093V   26171.47621582 -.00004022  00000-0 -13682-3 0  9996
2 59801  43.0066 348.5499 0002538 260.3192  99.7373 15.27547111118414
Epoch: 2026-06-20T11:25Z
TLE epoch observation values (Epoch: 2026-06-20T11:25:45.046Z)
Latitude
-0.00004°
Longitude
-91.57813°
Altitude
483.219 km
Speed
7.625 km/s
True Right ascension
23h 14m 11s
True Declination
0° 00' 00"
Sunlit
Object was in daylight at epoch
Visualization orbit readout
Latitude
Unknown
Longitude
Unknown
Altitude
Unknown
Speed
Unknown
Apparent Right ascension
Unknown
Apparent Declination
Unknown
Sunlit
N/A
Visualization observer readout
Local Sidereal Time
00:49:55
Azimuth
Unknown
Elevation
Unknown
Doppler factor
Unknown
Orbital elements
Apogee altitude
486.834 km
Perigee altitude
483.35 km
Semi-major axis
6,863.229 km
Eccentricity
0.00025
Inclination
43.0066°
RAAN
348.5499°
Arg. of periapsis
260.3192°
True anomaly
99.76596°
Mean anomaly
99.7373°
Eccentric anomaly
99.75163°
Mean motion
3.81725 °/min
Orbital period
94.31 mins
BSTAR
-0.00013682
Loading maneuver chart data...
Computing Atmospheric mass density...
Loading historical data...
Loading historical data...
Loading historical data...
Loading historical data...
Loading historical data...
Loading historical data...
Loading historical data...

Documentation

Showing up to 5 results
|